1418 visiteurs
Prévisions de votre ville :
Vigilance : 16 départements Mise à jour le 15/10/2019 à 13:09 - Voir la carte

Paris Roissy CDG (95380) le 15/10/2019 à 15:30 Choisir station

16°C 59 % SO Vit. moyenne 24 kmh/h

Relevés météo quotidiens pour la station de :

UTC
S: Synop
M: Metar
Loc T°C
(°C)
Td
(°C)
HR
(%)
Vis
(km)
Néb
(octa)
Vent
(km/h)
Pression
(mb)
Précipitations
(mm)
Temps
              MOY
10 min
DIR RAF 1h MESURE VAR SUR 3h    
S 00 h 01h 5.3 -0.5 66 - 78 102 999.0 +1.6/3h 0.0/6h - 0.0/3h -
S 01 h 02h 5.2 -0.4 67 - 80 102 998.4 +0.3/3h 0.0/1h -
S 02 h 03h 5.0 -0.2 69 - 96 128 997.5 -0.6/3h 0.0/1h -
S 03 h 04h 4.3 -1.7 65 20 1/8 44 69 998.9 -0.2/3h 0.0/3h
S 04 h 05h 3.8 -2.6 63 - 89 119 999.1 +0.6/3h 0.0/1h -
S 05 h 06h 3.7 -2.7 63 - 83 115 999.1 +1.5/3h 0.0/1h -
S 06 h 07h 3.6 -2.6 64 20 1/8 93 135 999.0 +0.1/3h 0.0/12h - 0.0/3h - 4.4/24h
S 07 h 08h 3.8 -3.0 61 - 52 74 1000.2 +1.1/3h 0.0/1h -
S 08 h 09h 3.7 -3.1 61 - 57 74 999.7 +0.6/3h 0.0/1h -
S 09 h 10h 4.3 -2.3 62 20 1/8 87 139 1001.8 +2.8/3h 0.0/3h
S 10 h 11h 4.9 -2.7 58 - 96 128 1002.1 +1.9/3h 0.0/1h -
S 11 h 12h 5.6 -1.1 62 - 102 148 1002.3 +2.6/3h 0.0/1h -
S 12 h 13h 5.7 -2.4 56 20 1/8 102 137 1002.3 +0.5/3h 0.0/6h - 0.0/3h
S 13 h 14h 6.0 -2.6 54 - 113 143 1002.7 +0.6/3h 0.0/1h -
S 14 h 15h 6.6 -1.6 56 - 113 150 1002.7 +0.5/3h 0.0/1h -
S 15 h 16h 6.8 -1.6 55 20 1/8 111 143 1003.4 +1.2/3h 0.0/3h
S 16 h 17h 6.6 -1.6 56 - 52 74 1005.5 +2.8/3h 0.0/1h -
S 17 h 18h 6.3 -1.6 57 - 50 69 1006.3 +3.5/3h 0.0/1h -
S 18 h 19h 6.1 -2.0 56 - 104 135 1006.6 +3.1/3h 0.0/12h - 0.0/3h -
S 19 h 20h 5.8 -2.3 56 - 94 133 1008.2 +2.7/3h 0.0/1h -
S 20 h 21h 5.7 -1.9 58 - 102 135 1008.3 +2.0/3h 0.0/1h -
S 21 h 22h 5.4 -2.7 56 - 46 67 1008.3 +1.7/3h 0.0/3h -
S 22 h 23h 5.4 -2.2 58 - 91 135 1009.1 +0.9/3h 0.0/1h -
S 23 h 00h 5.4 -1.5 61 - 98 133 1009.4 +1.0/3h 0.0/1h -
evolution des temperatures
cumul des precipitations
vent moyen et rafales
pression atmospherique

Un tiret (-) signifie que les données ne sont pas disponibles.

Passez la souris sur les pictos temps pour avoir plus de précisions. Passez les flèches sur l'icône de la direction du vent pour voir la direction précise en degrés.

Les données de l'heure en cours sont disponibles à partir de H+15 minutes.


S signifie station Synop, plus complète qu'une station Metar (M). Il y a +1h de différence entre l'heure UTC et l'heure légale en hiver et +2h en été.

Td est la mesure du point de rosée.

HR est l'humidité relative/p>

Vis est la visibilité

Néb est la nébulosité du ciel (couverture nuageuse) exprimée en octas (de 0/8 à 8/8).

Vent moy 10 min donne le vent moyen sur les 10 minutes qui précèdent le relevé.

Vent raf 1h donne la rafale maximale mesurée dans l'heure qui précède le relevé.


Les données les plus anciennes remontent à avril 2014.

Les données présentées sur cette page proviennent des stations météo officielles. Les relevés sont effectués aux normes en vigueur (anémomètre à 10m de haut, thermomètre sous abri normalisé à 2m du sol...)

Météo 60 décline toute responsabilité en cas d'absence de données, d'erreurs, de mauvaise utilisation ou interprétation et n'est pas habilité à fournir des certificats intempéries.